Regional Weather Roundup
Issued by NWS Kansas City/Pleasant Hill, MO

Home | Current Version | Previous Version | Text Only | Print | Product List | Glossary On
Versions: 1 2 3 4 5 6 7 8 9 10 11 12 13 14 15 16 17 18 19 20 21 22 23 24 25 26 27
000
ASUS43 KEAX 190910
RWREAX

WEATHER ROUNDUP FOR EASTERN KANSAS AND NORTHWEST MISSOURI
NATIONAL WEATHER SERVICE KANSAS CITY/PLEASANT HILL MO
400 AM CDT THU OCT 19 2017

KSZ040-057-103>105-MOZ028-029-037-043-191000-
...KANSAS CITY METROPOLITAN AREA...

CITY           SKY/WX    TMP DP  RH WIND       PRES   REMARKS
K.C. INTL      CLEAR     51  48  89 S8        30.07S
K.C. DOWNTOWN  CLEAR     58  49  72 SW3       30.07S
LEES SUMMIT    CLEAR     58  49  72 SW10      30.09R
OLATHE - IXD   CLEAR     50  47  89 S5        30.09R
OLATHE - OJC   CLEAR     53  48  83 S5        30.08S
LAWRENCE       CLEAR     47  47 100 CALM      30.08R

$$

MOZ001>008-011>017-020>025-030>033-038>040-044>046-053-054-191000-
...NORTHERN AND CENTRAL MISSOURI...

CITY           SKY/WX    TMP DP  RH WIND       PRES   REMARKS
ST. JOSEPH     FOG       44  44 100 CALM      30.05F VSB 1/4
MOSBY          SUNNY     46  45  93 CALM      30.08S
WARRENSBURG    CLEAR     52  46  82 S6        30.10S
WHITEMAN AFB   CLEAR     52  47  83 S8        30.06S
CLINTON        CLEAR     54  46  76 S6        30.12S
SEDALIA        CLEAR     59  50  72 SW10      30.12R
WARSAW         NOT AVBL
CHILLICOTHE      N/A     49  48  97 CALM      30.08S
KIRKSVILLE     CLEAR     52  49  89 SW3       30.08F

$$

MOZ041-047>049-056>058-063>065-088>090-097-191000-
...EASTERN AND SOUTHERN MISSOURI...

CITY           SKY/WX    TMP DP  RH WIND       PRES   REMARKS
ST. LOUIS INTL CLEAR     58  49  72 SW3       30.13F
SPIRIT OF STL  CLEAR     49  47  93 CALM      30.13S
COLUMBIA       CLEAR     52  46  80 S7        30.11S
JEFFERSON CITY CLEAR     50  45  83 CALM      30.12S
ROLLA          CLEAR     53  48  83 S10       30.15S
OSAGE BEACH    CLEAR     50  46  86 S3        30.14F
SPRINGFIELD    CLEAR     48  45  89 SE5       30.14S
BRANSON        CLOUDY    48  46  93 CALM      30.16S
JOPLIN         CLEAR     53  48  83 S6        30.13S
WEST PLAINS    CLEAR     52  46  80 S3        30.16F

$$

IAZ060-094-KSZ022-034>040-054-083-096-NEZ052-066-093-191000-
...KANSAS...SOUTHEAST NEBRASKA AND IOWA...

CITY           SKY/WX    TMP DP  RH WIND       PRES   REMARKS
TOPEKA         CLEAR     50  49  96 CALM      30.06S
MANHATTAN      CLEAR     45  45 100 CALM      30.05S
EMPORIA        CLEAR     53  47  79 S8        30.07R
CHANUTE        CLEAR     53  47  79 S8        30.10S
WICHITA        CLEAR     50  47  89 S7        30.06S
OMAHA          PTCLDY    47  43  86 N9        30.05S
LINCOLN        CLEAR     45  41  86 N3        30.04F
FALLS CITY     CLEAR     46  45  96 CALM      30.04S
LAMONI         CLEAR     49  47  93 CALM      30.06S
DES MOINES     CLEAR     52  48  86 N5        30.06S

$$





USA.gov is the U.S. government's official web portal to all federal, state and local government web resources and services.